Notices

What's New in latest Release from April 7th, 2021:

- Updated Glossary, including Speed of Maximum Gust, and Total Hourly Precipitation

- Updated national and regional climate services offices contacts and prices information

- Addition of station inventory lists for 1981-2010, 1971-2000, and 1961-1990 Normals.

If you haven't already, please take our survey and provide feedback about our website: https://eccc.sondage-survey.ca/f/LanguageSelection.aspx?s=442ca660-fcf1-47c0-95a9-59707d6fd709

Hourly Data Report for January 11, 2020

SATURNA ISLAND CS
BRITISH COLUMBIA
Current Station Operator: ECCC - MSC

48°47'02.067" N
123°02'41.082" W
24.40 m
1017101
71473
WEZ

Download Data

Hourly Data (January 2020)
Hourly Data Report for January 11, 2020
TIME
LST
Temp Definition
°C
Dew Point Definition
°C
Rel Hum Definition
%
Precip. Amount Definition
mm

Wind Dir Definition
10's deg

Wind Spd Definition
km/h
Visibility Definition
km
Stn Press Definition
kPa
Hmdx Definition


Wind Chill Definition


Weather Definition


00:00 7.1 5.4 89 0.2 16 35   99.50     LegendNANA
01:00 7.3 5.8 90 0.6 18 29   99.50     LegendNANA
02:00 7.3 5.7 90 0.0 19 29   99.58     LegendNANA
03:00 6.9 5.4 90 0.2 18 26   99.66     LegendNANA
04:00 6.6 5.4 93 0.4 23 5   99.76     LegendNANA
05:00 6.5 5.6 94 0.2 27 5   99.84     LegendNANA
06:00 6.0 5.2 95 0.2 31 5   99.98     LegendNANA
07:00 5.2 4.5 95 0.0 33 12   100.13     LegendNANA
08:00 5.7 5.0 96 0.0 31 6   100.28     LegendNANA
09:00 5.8 4.9 94 0.0 32 5   100.42     LegendNANA
10:00 6.3 4.5 88 0.0 30 4   100.54     LegendNANA
11:00 6.7 2.8 76 0.0 30 8   100.60     LegendNANA
12:00 6.7 2.3 74 0.0 34 6   100.66     LegendNANA
13:00 6.1 2.1 76 0.0 30 4   100.68     LegendNANA
14:00 6.0 0.8 69 0.0 32 6   100.68     LegendNANA
15:00 6.0 0.7 69 0.0 32 3   100.79     LegendNANA
16:00 5.9 -0.3 64 0.0 29 6   100.82     LegendNANA
17:00 4.6 0.5 75 0.2 24 9   100.89     LegendNANA
18:00 4.6 1.7 81 0.0 19 16   100.86     LegendNANA
19:00 5.0 2.2 82 0.0 19 18   100.88     LegendNANA
20:00 3.9 2.0 88 0.2 23 7   100.85     LegendNANA
21:00 3.5 2.0 90 0.4 26 8   100.81     LegendNANA
22:00 3.6 2.4 92 0.4 21 17   100.71     LegendNANA
23:00 3.8 2.5 91 0.6 18 24   100.59     LegendNANA

Notes on Data Quality.

Legend

  • E = Estimated
  • M = Missing
  • NA = Not Available*
  • [empty] = Indicates an unobserved value
Date modified: